Regional Weather Roundup
Issued by NWS

Home | Current Version | Previous Version | Text Only | Print | Product List | Glossary On
Versions: 1 2 3 4 5 6 7 8 9 10 11 12 13 14 15 16 17 18 19 20 21 22 23 24 25 26 27 28 29 30 31 32 33 34 35 36 37 38 39 40 41 42 43 44 45 46 47 48 49 50
551
ASUS46 KSEW 291110
RWRWA

WASHINGTON REGIONAL WEATHER ROUNDUP
NATIONAL WEATHER SERVICE SEATTLE WA
400 AM PDT WED MAR 29 2017

NOTE:"FAIR" INDICATES FEW OR NO CLOUDS BELOW 12,000 FEET WITH NO
SIGNIFICANT WEATHER AND/OR OBSTRUCTIONS TO VISIBILITY.

WAZ507-509-555>559-291200-
SEATTLE, TACOMA, EVERETT, AND VICINITY

CITY           SKY/WX    TMP DP  RH WIND       PRES   REMARKS
EVERETT        LGT RAIN  44  42  93 E9        29.99F
BOEING FIELD   LGT RAIN  47  47 100 CALM      30.00F FOG
RENTON         LGT RAIN  47  46  97 S3        30.00F
SEATAC AIRPORT LGT RAIN  46  45  96 E6        29.99F
JBLM-MCCHORD   RAIN      45  45 100 NE5       29.98F FOG
PUYALLUP       DRIZZLE   45  45 100 CALM      29.98F
BREMERTON      CLOUDY    43  43 100 CALM      30.01F
JBLM-FT LEWIS  RAIN      45  45 100 CALM      29.97F
TACOMA NARROWS RAIN      45  44  97 CALM      29.98F FOG
$$

WAZ001-503-506-510-514-515-291200-
NORTH INTERIOR

CITY           SKY/WX    TMP DP  RH WIND       PRES   REMARKS
BELLINGHAM     LGT RAIN  46  42  86 SE14G23   29.97F
FRIDAY HARBOR  LGT RAIN  47  44  90 SE20G32   29.93F
EASTSOUND      LGT RAIN  46  45  93 S12G20    29.91F
PORT ANGELES   LGT RAIN  46  45  96 CALM      29.88F FOG
EDIZ HOOK      CLOUDY    46  45  95 S5        29.88F
PORT TOWNSEND  CLOUDY    46  43  87 SE9G21    29.93F
NAS WHIDBEY    LGT RAIN  48  42  80 SE22G33   29.98F
ARLINGTON      CLOUDY    46  37  71 E12       30.02F
BURLINGTON     CLOUDY    46  43  87 E13G18    29.98F
$$

WAZ020-022-039-040-504-511-512-291200-
SOUTHWEST INTERIOR

CITY           SKY/WX    TMP DP  RH WIND       PRES   REMARKS
SHELTON        LGT RAIN  44  43  96 N5        29.95F FOG
OLYMPIA        RAIN      45  45 100 S6        29.98F FOG
CHEHALIS       RAIN      46  46 100 SW7       29.98F
KELSO          RAIN      48  45  89 S8G16     30.02F
VANCOUVER      LGT RAIN  49  47  93 SE12G28   30.06F
SCAPPOOSE, OR  CLOUDY    47  45  93 S12       30.03F
PORTLAND, OR   LGT RAIN  48  45  89 S14       30.07F
$$

WAZ021-516-517-291200-
WASHINGTON COAST

CITY           SKY/WX    TMP DP  RH WIND       PRES   REMARKS
FORKS          LGT RAIN  46  44  93 SE13G22   29.84F
HOQUIAM        LGT RAIN  45  45 100 E14       29.91F FOG
ASTORIA, OR    LGT RAIN  50  45  83 S18G30    29.93F
$$

WAZ019-023-024-040-567>569-291200-
CASCADE MOUNTAINS AND COLUMBIA GORGE

CITY           SKY/WX    TMP DP  RH WIND       PRES   REMARKS
STAMPEDE PASS  NOT AVBL
TROUTDALE, OR  LGT RAIN  47  46  97 E7        30.07F FOG
THE DALLES, OR CLOUDY    47  46  97 NW5       30.08F
$$

WAZ026-027-041>044-520-521-291200-
EAST SLOPES

CITY           SKY/WX    TMP DP  RH WIND       PRES   REMARKS
OMAK           LGT RAIN  45  39  79 S10       30.02F
WENATCHEE      RAIN      43  40  89 N5        30.01F FOG
ELLENSBURG     LGT RAIN  42  39  89 S5        30.00F
YAKIMA         CLOUDY    47  43  86 NE3       30.03F
SUNNYSIDE ARPT LGT RAIN  43  43  99 E3        30.07F
$$

WAZ028-034-035-291200-
COLUMBIA BASIN

CITY           SKY/WX    TMP DP  RH WIND       PRES   REMARKS
EPHRATA        LGT RAIN  44  38  79 SE7       30.03F
MOSES LAKE     LGT RAIN  44  41  89 SE7       30.05F
PASCO            N/A    N/A N/A N/A MISG      30.10F
HERMISTON, OR  LGT RAIN  46  46 100 CALM      30.08F
$$

WAZ036>038-291200-
NORTHEAST WASHINGTON

CITY           SKY/WX    TMP DP  RH WIND       PRES   REMARKS
SPOKANE GEIGER LGT RAIN  41  37  86 S8        30.08F
SPOKANE FELTS  CLOUDY    45  38  76 SE5       30.10F
FAIRCHILD AFB  LGT RAIN  40  40 100 S5        30.06F
COEURDALENE,ID CLOUDY    40  38  93 S3        30.10F
DEER PARK      LGT RAIN  39  37  92 CALM      30.09F
$$

WAZ029>033-291200-
SOUTHEAST WASHINGTON

CITY           SKY/WX    TMP DP  RH WIND       PRES   REMARKS
PULLMAN        LGT RAIN  42  38  85 E3        30.12F
LEWISTON, ID   LGT RAIN  44  42  93 NE3       30.12F
WALLA WALLA    LGT RAIN  48  45  89 E6        30.08F
PENDLETON, OR  LGT RAIN  45  44  97 CALM      30.06F
$$




USA.gov is the U.S. government's official web portal to all federal, state and local government web resources and services.